[[{"header":{"parameterUnit":"m.s-1","parameterCategory":1,"la1":30.2991,"la2":30.254,"lo1":-89.0895,"lo2":-89.0444,"dy":0.0017,"dx":0.0017,"nx":28,"ny":28,"refTime":"2025-12-17T03:00:00:Z","depth":0,"parameterNumber":2,"parameterNumberName":"U-component_of_WINDS"},"data":[0,0,0,0,0,0,0,0,0,0,0,0,0,0,0,0,0,0,0,0,0,0,0,0,0,0,0,0,0,0,0,0,0,0,0,0,0,0,0,0,0,0,0,0,0,0,0,0,0,0,0,0,0,0,0,0,0,0,-4.0289,-4.0289,0,-4.0282,-4.0282,-4.0282,-4.0113,-4.0108,-4.0104,-4.01,-4.0095,-4.0098,-4.0102,0,0,0,0,0,0,0,0,0,0,0,0,0,-4.016,-4.0163,-4.0289,-4.0289,-4.0289,-4.0282,-4.0282,-4.0282,-4.0114,-4.0108,-4.0103,-4.0098,-4.0093,-4.0098,-4.0103,0,0,0,0,0,0,0,0,0,0,0,0,0,-4.0191,-4.0164,-4.0289,-4.0204,-4.0197,-4.0282,-4.0282,-4.0282,-4.0115,-4.0108,-4.0102,-4.0096,-4.0092,-4.0097,-4.0103,-4.027,0,0,-4.0121,-4.0124,0,0,0,0,0,0,0,0,-4.0189,-4.0196,-4.0217,-4.021,-4.0202,-4.0191,-4.0234,-4.0278,-4.0116,-4.0146,-4.01,-4.0092,-4.0132,-4.0134,-4.0147,-4.0269,-4.0269,-4.0122,-4.0125,-4.0128,-4.0129,0,0,0,0,0,0,0,-4.0187,-4.0195,-4.0286,-4.0218,-4.0208,-4.0167,-4.0164,-4.0241,-4.0176,-4.0143,-4.0131,-4.0132,-4.0127,-4.0142,-4.0146,-4.0269,-4.0121,-4.0127,-4.013,-4.0132,-4.0529,-4.0536,0,0,0,0,0,0,-4.0197,-4.0194,-4.0287,-4.0286,-4.0179,-4.0175,-4.0172,-4.0202,-4.0174,-4.0164,-4.0137,-4.0124,-4.0135,-4.0139,-4.0145,-4.034,-4.0128,-4.0133,-4.0136,-4.0522,-4.0531,-4.0538,0,0,0,0,0,0,-4.0195,-4.0206,-4.0287,-4.0237,-4.0244,-4.0184,-4.0219,-4.0205,-4.022,-4.017,-4.0158,-4.0165,-4.013,-4.0137,-4.024,-4.0337,-4.0136,-4.0141,-4.0514,-4.0525,-4.0534,-4.073,0,0,0,0,0,0,-4.0192,-4.0207,-4.0269,-4.024,-4.0247,-4.0382,-4.0225,-4.0209,-4.023,-4.0213,-4.0193,-4.0183,-4.0126,-4.0232,-4.0246,-4.0342,-4.0146,-4.0505,-4.0519,-4.0531,-4.0715,-4.0746,-4.0773,0,0,0,0,0,-4.0187,-4.0325,-4.0273,-4.0285,-4.0324,-4.0388,-4.0393,-4.0323,-4.0239,-4.0301,-4.0269,-4.0184,-4.0324,-4.0244,-4.0258,-4.0357,-4.0498,-4.0515,-4.053,-4.0702,-4.074,-4.0772,0,0,0,0,0,0,-4.0368,-4.0319,-4.0262,-4.0393,-4.0396,-4.036,-4.0436,-4.0365,-4.0393,-4.0375,-4.0287,-4.0285,-4.0402,-4.0389,-4.0302,-4.0518,-4.0396,-4.0416,-4.0522,-4.0558,-4.0587,-4.0588,-4.015,0,0,0,0,0,-4.0423,-4.0478,-4.0433,-4.0553,-4.0558,-4.0498,-4.0523,-4.0468,-4.0468,-4.0469,-4.0444,-4.0448,-4.0493,-4.0524,-4.0562,-4.0711,-4.0706,-4.0786,-4.0815,-4.0839,-4.0858,-4.0938,-4.0974,-4.059,-4.059,-4.059,0,0,-4.0537,-4.0517,-4.0558,-4.0589,-4.0585,-4.0646,-4.05,-4.0569,-4.0614,-4.0479,-4.0576,-4.0559,-4.0557,-4.0684,-4.0739,-4.0677,-4.0962,-4.0859,-4.0879,-4.0885,-4.0958,-4.0994,-4.1026,-4.0601,-4.0599,-4.0597,0,0,-4.0777,-4.0767,-4.0867,-4.0866,-4.0861,-4.082,-4.0844,-4.0819,-4.0802,-4.0897,-4.0798,-4.0849,-4.0928,-4.0931,-4.0943,-4.1185,-4.1108,-4.1199,-4.1352,-4.1431,-4.1461,-4.1487,-4.1576,-4.1608,-4.1217,-4.1218,-4.1218,0,-4.092,-4.1006,-4.0927,-4.1004,-4.1022,-4.0902,-4.1003,-4.1006,-4.1015,-4.103,-4.096,-4.1057,-4.1047,-4.1175,-4.1234,-4.1246,-4.1273,-4.1202,-4.1463,-4.1489,-4.1512,-4.1596,-4.1629,-4.1229,-4.1228,-4.1227,-4.1226,0,-4.1184,-4.1245,-4.1327,-4.1338,-4.1364,-4.1453,-4.1389,-4.1425,-4.1368,-4.1335,-4.1434,-4.1418,-4.1452,-4.1477,-4.1423,-4.1598,-4.156,-4.1478,-4.1355,-4.1561,-4.1638,-4.1669,-4.1246,-4.1241,-4.1238,-4.1235,0,0,-4.1538,-4.1504,-4.1536,-4.154,-4.1527,-4.1573,-4.1657,-4.1689,-4.1723,-4.1733,-4.1802,-4.1871,-4.1795,-4.1809,-4.1754,-4.1823,-4.2018,-4.1732,-4.173,-4.1788,-4.2212,-4.2276,-4.2314,-4.1966,-4.1971,-4.1976,-4.2213,0,-4.1772,-4.1913,-4.1844,-4.1994,-4.2051,-4.1938,-4.2011,-4.2011,-4.1983,-4.2027,-4.1994,-4.2046,-4.1941,-4.1949,-4.2012,-4.1981,-4.2102,-4.1962,-4.2031,-4.2035,-4.2038,-4.2354,-4.2421,-4.2646,-4.2242,-4.2247,-4.2251,0,-4.2063,-4.2086,-4.2242,-4.2218,-4.224,-4.2307,-4.2332,-4.2375,-4.2373,-4.2347,-4.2363,-4.2292,-4.2373,-4.225,-4.2362,-4.2268,-4.2292,-4.2281,-4.2288,-4.2294,-4.2158,-4.2371,-4.2716,-4.2751,-4.2297,-4.2294,-4.229,0,-4.2309,-4.2378,-4.2481,-4.2487,-4.2462,-4.2513,-4.2504,-4.2496,-4.252,-4.2542,-4.2557,-4.2588,-4.2606,-4.2632,-4.2571,-4.2486,-4.2693,-4.2563,-4.2675,-4.2677,-4.2726,-4.2724,-4.3083,-4.2738,-4.2737,-4.2736,-4.2736,0,-4.2579,-4.2679,-4.2591,-4.2655,-4.2764,-4.2684,-4.2795,-4.2774,-4.2768,-4.2826,-4.2729,-4.2786,-4.2701,-4.275,-4.2703,-4.2805,-4.2812,-4.2795,-4.2782,-4.2805,-4.2808,-4.2822,-4.2806,-4.2745,-4.2743,-4.2742,-4.274,0,-4.2873,-4.2818,-4.2923,-4.289,-4.2884,-4.2967,-4.2939,-4.2997,-4.2961,-4.3036,-4.3049,-4.2993,-4.3046,-4.2987,-4.3035,-4.3003,-4.3141,-4.3103,-4.3142,-4.3132,-4.3249,-4.324,-4.3631,-4.3679,-4.3301,-4.3305,-4.3308,0,-4.305,-4.3125,-4.3101,-4.3133,-4.313,-4.3183,-4.3207,-4.3131,-4.3161,-4.3164,-4.3223,-4.3267,-4.3298,-4.3387,-4.3352,-4.3388,-4.3352,-4.3486,-4.3357,-4.3379,-4.3357,-4.3355,-4.3363,-4.3514,-4.3518,-4.3522,-4.3525,0,-4.3371,-4.334,-4.3378,-4.3409,-4.344,-4.346,-4.3473,-4.3504,-4.3425,-4.3464,-4.3516,-4.3541,-4.3589,-4.3635,-4.3662,-4.3653,-4.3578,-4.3566,-4.3594,-4.362,-4.3641,-4.3634,-4.3217,-4.3558,-4.3554,-4.3552,-4.355,-4.3549,-4.3613,-4.3675,-4.3668,-4.3715,-4.3716,-4.3731,-4.3784,-4.3754,-4.3797,-4.383,-4.3783,-4.3849,-4.3845,-4.3872,-4.3873,-4.3924,-4.3867,-4.3908,-4.3918,-4.393,-4.3949,-4.3631,-4.3929,-4.3927,-4.3926,-4.3926,-4.3925,0,-4.3931,-4.3921,-4.3965,-4.3986,-4.4023,-4.3946,-4.3956,-4.3993,-4.4052,-4.4055,-4.4088,-4.4149,-4.4193,-4.4161,-4.4198,-4.4245,-4.4212,-4.4258,-4.4255,-4.4255,-4.3997,-4.397,-4.4285,-4.4285,-4.4284,-4.4284,-4.4284,-4.4284,-4.4101,-4.4203,-4.4171,-4.4272,-4.4261,-4.4325,-4.4338,-4.435,-4.4352,-4.4425,-4.4461,-4.4439,-4.4429,-4.4464,-4.4502,-4.4491,-4.451,-4.457,-4.4548,-4.4308,-4.4273,-4.4239,-4.4213,-4.4574,-4.4575,-4.4801,-4.4804,-4.4805]},{"header":{"parameterUnit":"m.s-1","parameterCategory":1,"la1":30.2991,"la2":30.254,"lo1":-89.0895,"lo2":-89.0444,"dy":0.0017,"dx":0.0017,"nx":28,"ny":28,"refTime":"2025-12-17T03:00:00:Z","depth":0,"parameterNumber":3,"parameterNumberName":"V-component_of_WINDS"},"data":[0,0,0,0,0,0,0,0,0,0,0,0,0,0,0,0,0,0,0,0,0,0,0,0,0,0,0,0,0,0,0,0,0,0,0,0,0,0,0,0,0,0,0,0,0,0,0,0,0,0,0,0,0,0,0,0,0,0,-2.7569,-2.7569,0,-2.7531,-2.753,-2.753,-2.7461,-2.7459,-2.7458,-2.7457,-2.7418,-2.7418,-2.7418,0,0,0,0,0,0,0,0,0,0,0,0,0,-2.7582,-2.7582,-2.7569,-2.7569,-2.7568,-2.7531,-2.753,-2.753,-2.7461,-2.7459,-2.7458,-2.7456,-2.7418,-2.7418,-2.7418,0,0,0,0,0,0,0,0,0,0,0,0,0,-2.7563,-2.7582,-2.7569,-2.7529,-2.7525,-2.7531,-2.753,-2.753,-2.7461,-2.7459,-2.7457,-2.7455,-2.7418,-2.7418,-2.7418,-2.746,0,0,-2.7419,-2.7419,0,0,0,0,0,0,0,0,-2.7564,-2.7563,-2.7536,-2.7532,-2.7528,-2.7498,-2.752,-2.7506,-2.7462,-2.7486,-2.7457,-2.7455,-2.7446,-2.7444,-2.7441,-2.7458,-2.7456,-2.7419,-2.7419,-2.7419,-2.7419,0,0,0,0,0,0,0,-2.7566,-2.7564,-2.7554,-2.7535,-2.753,-2.7513,-2.7508,-2.7517,-2.7478,-2.7483,-2.7478,-2.7475,-2.7444,-2.7441,-2.744,-2.7455,-2.7419,-2.7419,-2.7419,-2.742,-2.7502,-2.7504,0,0,0,0,0,0,-2.7573,-2.7566,-2.7555,-2.7553,-2.7541,-2.7514,-2.7509,-2.751,-2.7477,-2.747,-2.7476,-2.7472,-2.7442,-2.744,-2.7438,-2.7483,-2.7419,-2.742,-2.742,-2.75,-2.7502,-2.7504,0,0,0,0,0,0,-2.7573,-2.7573,-2.7557,-2.7558,-2.7554,-2.7516,-2.7518,-2.751,-2.7507,-2.7472,-2.7464,-2.7481,-2.744,-2.7438,-2.7454,-2.748,-2.742,-2.742,-2.7497,-2.7501,-2.7503,-2.7574,0,0,0,0,0,0,-2.7574,-2.7573,-2.7589,-2.7559,-2.7555,-2.7574,-2.7519,-2.7511,-2.7508,-2.7501,-2.7474,-2.7468,-2.7438,-2.7454,-2.7455,-2.748,-2.742,-2.7495,-2.7499,-2.7502,-2.7569,-2.7579,-2.7587,0,0,0,0,0,-2.7575,-2.7611,-2.759,-2.7589,-2.7573,-2.7576,-2.7573,-2.7538,-2.7511,-2.7525,-2.7502,-2.7469,-2.7478,-2.7456,-2.7456,-2.7482,-2.7493,-2.7498,-2.7502,-2.7565,-2.7577,-2.7587,0,0,0,0,0,0,-2.7645,-2.7606,-2.7583,-2.761,-2.7596,-2.7564,-2.7582,-2.7552,-2.7547,-2.7541,-2.7498,-2.7492,-2.7514,-2.75,-2.7477,-2.7519,-2.748,-2.7485,-2.7528,-2.7539,-2.7548,-2.755,-2.742,0,0,0,0,0,-2.7664,-2.7669,-2.7634,-2.7662,-2.7656,-2.762,-2.762,-2.7594,-2.7579,-2.7573,-2.7551,-2.7537,-2.7536,-2.7537,-2.7535,-2.7567,-2.7559,-2.7584,-2.7593,-2.7601,-2.7605,-2.7619,-2.7629,-2.7519,-2.7519,-2.7519,0,0,-2.7702,-2.7682,-2.7688,-2.7675,-2.7662,-2.7668,-2.7616,-2.7625,-2.7628,-2.7574,-2.7588,-2.7571,-2.7553,-2.7577,-2.7586,-2.7566,-2.7634,-2.7607,-2.7613,-2.7613,-2.7625,-2.7635,-2.7645,-2.7522,-2.7522,-2.7521,0,0,-2.7775,-2.7761,-2.7781,-2.7768,-2.7749,-2.7724,-2.773,-2.7701,-2.7688,-2.7701,-2.766,-2.7664,-2.7664,-2.7652,-2.7646,-2.7714,-2.7682,-2.7714,-2.7762,-2.7776,-2.7784,-2.7792,-2.7814,-2.7823,-2.7719,-2.7719,-2.7719,0,-2.7826,-2.7833,-2.7795,-2.7806,-2.7801,-2.7752,-2.7771,-2.7761,-2.7742,-2.774,-2.7717,-2.7715,-2.77,-2.7719,-2.7735,-2.7733,-2.7736,-2.7716,-2.7786,-2.7793,-2.78,-2.7821,-2.7829,-2.7723,-2.7722,-2.7722,-2.7722,0,-2.7895,-2.7901,-2.7919,-2.7901,-2.7899,-2.7914,-2.7878,-2.788,-2.7854,-2.7832,-2.7846,-2.7825,-2.7817,-2.782,-2.7795,-2.7836,-2.7823,-2.7794,-2.7754,-2.7815,-2.7834,-2.7841,-2.7728,-2.7727,-2.7726,-2.7725,0,0,-2.8011,-2.7971,-2.7979,-2.7969,-2.7943,-2.7947,-2.796,-2.7951,-2.7953,-2.7942,-2.795,-2.7951,-2.7924,-2.7917,-2.789,-2.7903,-2.7956,-2.7872,-2.7871,-2.7887,-2.7997,-2.8018,-2.8028,-2.7935,-2.7936,-2.7937,-2.7998,0,-2.8077,-2.8096,-2.8062,-2.8089,-2.8093,-2.8046,-2.8057,-2.8042,-2.8022,-2.8022,-2.8,-2.8,-2.7965,-2.796,-2.7971,-2.7947,-2.7977,-2.7943,-2.7941,-2.7942,-2.7946,-2.8038,-2.806,-2.8118,-2.8005,-2.8006,-2.8007,0,-2.8157,-2.8148,-2.8176,-2.8147,-2.8147,-2.8158,-2.8147,-2.8148,-2.813,-2.8114,-2.8106,-2.8075,-2.8084,-2.8046,-2.8058,-2.8035,-2.8032,-2.8021,-2.8022,-2.802,-2.7977,-2.8036,-2.8136,-2.8144,-2.8019,-2.8018,-2.8017,0,-2.8236,-2.8232,-2.8247,-2.8241,-2.8209,-2.8217,-2.8204,-2.8183,-2.818,-2.8171,-2.8168,-2.816,-2.8155,-2.8149,-2.8116,-2.8091,-2.8131,-2.809,-2.8117,-2.8118,-2.8127,-2.8126,-2.8226,-2.8128,-2.8128,-2.8128,-2.8127,0,-2.8313,-2.8331,-2.8282,-2.8292,-2.8311,-2.8271,-2.8291,-2.8273,-2.8255,-2.8259,-2.8219,-2.8224,-2.818,-2.818,-2.8154,-2.8167,-2.8166,-2.8152,-2.8145,-2.8155,-2.8157,-2.8152,-2.8146,-2.813,-2.8129,-2.8129,-2.8128,0,-2.8404,-2.8373,-2.8386,-2.8354,-2.8347,-2.8362,-2.8334,-2.8341,-2.8318,-2.8324,-2.8323,-2.8287,-2.8285,-2.8251,-2.8242,-2.8224,-2.8247,-2.8232,-2.8253,-2.8248,-2.8275,-2.8273,-2.8375,-2.8385,-2.8282,-2.8283,-2.8284,0,-2.8455,-2.8467,-2.8437,-2.8437,-2.8425,-2.8426,-2.8422,-2.8384,-2.8382,-2.8362,-2.8371,-2.8365,-2.8358,-2.8357,-2.8329,-2.8321,-2.8306,-2.8342,-2.8304,-2.8314,-2.8304,-2.8303,-2.8304,-2.835,-2.8351,-2.8352,-2.8353,0,-2.8547,-2.853,-2.8526,-2.8517,-2.8514,-2.8505,-2.8493,-2.8495,-2.8453,-2.8452,-2.8449,-2.8444,-2.8434,-2.8429,-2.8416,-2.8401,-2.837,-2.8365,-2.837,-2.838,-2.8391,-2.8384,-2.8273,-2.8363,-2.8362,-2.8361,-2.836,-2.836,-2.8618,-2.8626,-2.8606,-2.8603,-2.859,-2.858,-2.8584,-2.8561,-2.8558,-2.8547,-2.8525,-2.8525,-2.8505,-2.8484,-2.8473,-2.8472,-2.8453,-2.8461,-2.8463,-2.8465,-2.847,-2.8392,-2.8469,-2.8469,-2.8469,-2.8468,-2.8468,0,-2.8706,-2.869,-2.8688,-2.8673,-2.867,-2.8641,-2.8626,-2.8626,-2.8626,-2.8611,-2.8605,-2.8601,-2.8595,-2.8567,-2.8558,-2.8562,-2.8547,-2.8561,-2.8559,-2.8556,-2.8488,-2.8484,-2.8573,-2.8573,-2.8573,-2.8573,-2.8573,-2.8573,-2.8752,-2.8764,-2.8745,-2.8751,-2.8734,-2.8734,-2.8728,-2.8718,-2.8705,-2.8702,-2.8697,-2.8679,-2.8658,-2.8647,-2.864,-2.8631,-2.8629,-2.8648,-2.8634,-2.8571,-2.8561,-2.8552,-2.8547,-2.8648,-2.8648,-2.8702,-2.8702,-2.8703]}]]